Date String (YYYY-MM-DD hh:mm:ss) UTC,Instrument flags,Ambient pressure (hPa),Sample flow (lpm),Bypass flow (lpm),Sample temperature (°C),Ambient temperature (°C),ASC tube jacket temperature (°C),LED temperature (°C),Box temperature (°C),Sample RH (%),Span deviation,Mass concentration (μg/m³),Mass concentration (μg/m³),Mass concentration (μg/m³)
DateTimeUTC,F1_M11,P_M11,Q1_M11,Q2_M11,T1_M11,T2_M11,T3_M11,T4_M11,T5_M11,U1_M11,ZSPAN_M11,X2_M11,X0_M11,X1_M11
2022-11-22 01:00:00,,0828.5,5.00,0.00,27.4,25.6,00.0,36.6,29.1,07.1,-000.8,0006.34,0013.41,0005.74
2022-11-22 01:01:00,,0828.4,5.00,0.00,27.4,25.6,00.0,36.6,29.1,07.1,-000.4,0006.34,0013.34,0005.71
2022-11-22 01:02:00,,0828.5,5.00,0.00,27.4,25.6,00.0,36.5,29.1,07.2,0000.0,0006.31,0012.78,0005.66
2022-11-22 01:03:00,,0828.5,5.01,0.00,27.4,25.5,00.0,36.5,29.1,07.2,0000.0,0006.21,0012.35,0005.57
2022-11-22 01:04:00,,0828.5,5.01,0.00,27.4,25.5,00.0,36.5,29.1,07.2,0000.0,0006.17,0011.96,0005.53
2022-11-22 01:05:00,,0828.5,4.99,0.00,27.4,25.5,00.0,36.5,29.1,07.2,0000.0,0006.14,0011.44,0005.48
2022-11-22 01:06:00,,0828.6,4.99,0.00,27.3,25.5,00.0,36.5,29.1,07.3,0000.0,0006.11,0011.56,0005.46
2022-11-22 01:07:00,,0828.8,5.00,0.00,27.3,25.5,00.0,36.4,29.1,07.3,0000.0,0006.09,0011.33,0005.45
2022-11-22 01:08:00,,0829.0,5.01,0.00,27.3,25.5,00.0,36.4,29.0,07.2,0000.0,0006.09,0011.82,0005.44
2022-11-22 01:09:00,,0829.1,4.99,0.00,27.3,25.5,00.0,36.4,28.9,07.2,0000.0,0006.11,0011.87,0005.43
2022-11-22 01:10:00,,0828.6,5.00,0.00,27.3,25.4,00.0,36.4,28.9,07.2,0000.0,0006.07,0011.76,0005.40
2022-11-22 01:11:00,,0828.5,5.01,0.00,27.2,25.4,00.0,36.3,28.9,07.2,0000.0,0006.02,0011.83,0005.37
2022-11-22 01:12:00,,0828.5,5.01,0.00,27.2,25.4,00.0,36.3,28.9,07.2,0000.0,0005.95,0012.03,0005.30
2022-11-22 01:13:00,,0828.6,5.00,0.00,27.2,25.4,00.0,36.3,28.8,07.3,0000.0,0005.87,0011.90,0005.26
2022-11-22 01:14:00,,0828.7,4.99,0.00,27.2,25.3,00.0,36.3,28.9,07.3,0000.0,0005.88,0012.15,0005.27
2022-11-22 01:15:00,,0828.7,5.00,0.00,27.1,25.3,00.0,36.3,28.8,07.2,0000.0,0005.91,0012.26,0005.30
2022-11-22 01:16:00,,0828.9,5.00,0.00,27.1,25.3,00.0,36.2,28.8,07.2,0000.0,0005.94,0012.39,0005.33
2022-11-22 01:17:00,,0828.9,5.00,0.00,27.1,25.3,00.0,36.2,28.8,07.7,0000.0,0005.95,0011.92,0005.34
2022-11-22 01:18:00,,0828.6,5.01,0.00,27.1,25.3,00.0,36.2,28.8,07.6,0000.0,0005.93,0012.02,0005.33
2022-11-22 01:19:00,,0828.7,4.99,0.00,27.1,25.2,00.0,36.2,28.8,07.5,0000.0,0005.93,0011.81,0005.34
2022-11-22 01:20:00,,0828.6,4.99,0.00,27.1,25.2,00.0,36.2,28.8,07.4,0000.0,0005.91,0011.81,0005.33
2022-11-22 01:21:00,,0828.9,5.01,0.00,27.0,25.2,00.0,36.1,28.8,07.4,0000.0,0005.98,0012.67,0005.37
2022-11-22 01:22:00,,0828.6,5.01,0.00,27.0,25.1,00.0,36.1,28.7,07.4,0000.0,0006.04,0012.58,0005.40
2022-11-22 01:23:00,,0828.6,5.00,0.00,27.0,25.1,00.0,36.1,28.7,07.3,0000.0,0006.13,0012.50,0005.49
2022-11-22 01:24:00,,0828.7,4.99,0.00,27.0,25.1,00.0,36.1,28.6,07.3,0000.0,0006.24,0012.68,0005.59
2022-11-22 01:25:00,,0828.6,5.00,0.00,26.9,25.1,00.0,36.0,28.6,07.3,0000.0,0006.32,0012.68,0005.66
2022-11-22 01:26:00,,0828.6,5.00,0.00,26.9,25.1,00.0,36.0,28.6,07.3,0000.0,0006.38,0012.82,0005.69
2022-11-22 01:27:00,,0828.6,5.00,0.00,26.9,25.1,00.0,36.0,28.5,07.3,0000.0,0006.39,0012.86,0005.74
2022-11-22 01:28:00,,0828.7,5.00,0.00,26.9,25.0,00.0,36.0,28.5,07.4,0000.0,0006.45,0013.48,0005.82
2022-11-22 01:29:00,,0828.8,5.00,0.00,26.9,25.0,00.0,36.0,28.5,07.4,0000.0,0006.55,0013.21,0005.93
2022-11-22 01:30:00,,0828.8,5.00,0.00,26.8,25.0,00.0,35.9,28.5,07.4,0000.0,0006.70,0013.33,0006.03
2022-11-22 01:31:00,,0828.7,5.00,0.00,26.8,25.0,00.0,35.9,28.5,07.4,0000.0,0006.82,0013.62,0006.11
2022-11-22 01:32:00,,0828.7,5.00,0.00,26.8,24.9,00.0,35.9,28.5,07.4,0000.0,0006.84,0012.97,0006.14
2022-11-22 01:33:00,,0828.8,5.00,0.00,26.8,24.9,00.0,35.9,28.5,07.4,0000.0,0006.86,0013.06,0006.17
2022-11-22 01:34:00,,0829.2,5.00,0.00,26.7,24.9,00.0,35.9,28.4,07.5,0000.0,0006.87,0013.05,0006.18
2022-11-22 01:35:00,,0829.1,5.00,0.00,26.7,24.9,00.0,35.8,28.3,07.5,0000.0,0006.88,0013.09,0006.18
2022-11-22 01:36:00,,0829.2,5.00,0.00,26.7,24.9,00.0,35.8,28.3,07.4,0000.0,0006.91,0013.24,0006.21
2022-11-22 01:37:00,,0829.2,5.00,0.00,26.7,24.9,00.0,35.8,28.3,07.5,0000.0,0006.93,0014.21,0006.25
2022-11-22 01:38:00,,0829.2,5.00,0.00,26.7,24.9,00.0,35.8,28.3,07.5,0000.0,0006.97,0015.03,0006.26
2022-11-22 01:39:00,,0829.2,5.00,0.00,26.6,24.8,00.0,35.8,28.2,07.6,0000.0,0007.02,0014.62,0006.27
2022-11-22 01:40:00,,0829.3,5.01,0.00,26.6,24.8,00.0,35.7,28.3,07.7,0000.0,0007.00,0014.73,0006.24
2022-11-22 01:41:00,,0829.2,5.01,0.00,26.6,24.8,00.0,35.7,28.2,07.6,0000.0,0006.95,0014.39,0006.24
2022-11-22 01:42:00,,0829.2,5.01,0.00,26.6,24.8,00.0,35.7,28.2,07.6,0000.0,0006.97,0014.29,0006.26
2022-11-22 01:43:00,,0829.2,5.00,0.00,26.6,24.8,00.0,35.7,28.3,07.6,0000.0,0006.99,0014.64,0006.33
2022-11-22 01:44:00,,0829.2,5.00,0.00,26.6,24.8,00.0,35.7,28.3,07.6,0000.0,0007.05,0014.79,0006.39
2022-11-22 01:45:00,,0829.2,5.00,0.00,26.6,24.8,00.0,35.7,28.3,07.6,0000.0,0007.13,0015.01,0006.47
2022-11-22 01:46:00,,0829.1,5.00,0.00,26.5,24.8,00.0,35.6,28.3,07.6,0000.0,0007.20,0015.03,0006.53
2022-11-22 01:47:00,,0829.2,5.00,0.00,26.5,24.7,00.0,35.6,28.2,07.6,0000.0,0007.25,0016.30,0006.60
2022-11-22 01:48:00,,0828.9,5.00,0.00,26.5,24.7,00.0,35.6,28.2,07.7,0005.7,0007.27,0015.48,0006.64
2022-11-22 01:49:00,,0828.7,5.00,0.00,26.5,24.7,00.0,35.6,28.1,07.7,0006.7,0007.31,0014.43,0006.69
2022-11-22 01:50:00,,0828.7,5.00,0.00,26.5,24.7,00.0,35.6,28.1,07.7,0007.7,0007.35,0014.29,0006.78
2022-11-22 01:51:00,,0828.7,5.00,0.00,26.4,24.7,00.0,35.5,28.1,07.7,0008.0,0007.51,0014.35,0006.93
2022-11-22 01:52:00,,0828.8,5.00,0.00,26.4,24.7,00.0,35.5,28.1,07.8,0008.2,0007.58,0014.45,0007.02
2022-11-22 01:53:00,,0829.2,5.00,0.00,26.4,24.6,00.0,35.5,28.1,07.7,0008.0,0007.60,0014.52,0007.05
2022-11-22 01:54:00,,0829.1,5.01,0.00,26.4,24.6,00.0,35.5,28.1,07.7,0006.4,0007.63,0014.22,0007.07
2022-11-22 01:55:00,,0829.3,5.01,0.00,26.4,24.6,00.0,35.5,28.1,07.7,0005.7,0007.65,0014.02,0007.08
2022-11-22 01:56:00,,0829.1,4.99,0.00,26.4,24.6,00.0,35.5,28.2,07.7,0007.0,0007.64,0013.80,0007.09
2022-11-22 01:57:00,,0829.1,4.99,0.00,26.3,24.5,00.0,35.4,28.1,07.7,0006.9,0007.59,0013.56,0007.08
2022-11-22 01:58:00,,0829.2,5.00,0.00,26.3,24.5,00.0,35.4,28.0,07.8,0007.8,0007.51,0012.06,0007.01
2022-11-22 01:59:00,,0829.1,5.00,0.00,26.3,24.5,00.0,35.4,28.0,07.8,0010.0,0007.45,0011.88,0006.93
